Weather History for Crestview, FL

Change the Weather History Date:

Thursday, February 20, 2014

  Actual Average Record
Temperature  
Mean Temperature 70 °F -  
Max Temperature 75 °F 69 °F 78 °F (1949)
Min Temperature 64 °F 43 °F 27 °F (2009)
Cooling Degree Days 4    
Growing Degree Days 20 (Base 50)    
Moisture  
Dew Point 64 °F    
Average Humidity 89    
Maximum Humidity 100    
Minimum Humidity 64    
Precipitation  
Precipitation 0.00 in - - ()
Sea Level Pressure  
Sea Level Pressure 30.04 in    
Wind  
Wind Speed 7 mph (SSE)    
Max Wind Speed 20 mph    
Max Gust Speed 29 mph    
Visibility 6 miles    
Events Rain    
Averages and records for this station are not official NWS values.
T = Trace of Precipitation, MM = Missing Value Source: NWS Daily Summary

Daily Weather History Graph

Daily Weather History Graph

Search for Another Location

Airport:

Trip Planner

Search our weather history database for the weather conditions in past years. The results will help you decide how hot, cold, wet, or windy it might be!

Date:

Astronomy

Feb. 20, 2014 Rise Set
Actual Time 6:22 AM CST 5:37 PM CST
Civil Twilight 5:57 AM CST 6:02 PM CST
Nautical Twilight 5:29 AM CST 6:30 PM CST
Astronomical Twilight 5:01 AM CST 6:58 PM CST
Moon 11:05 PM CST (2/20) 9:28 AM CST (2/20)
Length of Visible Light 12h 04m
Length of Day
11h 15m
Waning Gibbous, 70% of the Moon is Illuminated
Feb 20
Waning Gibbous
Feb 22
Last Quarter
Mar 1
New
Mar 8
First Quarter
Mar 16
Full

Hourly Weather History & Observations

Time (CST) Temp. Dew Point Humidity Pressure Visibility Wind Dir Wind Speed Gust Speed Precip Events Conditions
12:53 AM 64.0 °F 63.0 °F 96% 30.06 in 3.0 mi Variable 6.9 mph - N/A   Overcast
1:28 AM 64.0 °F 63.0 °F 96% 30.06 in 2.5 mi Calm Calm - N/A   Overcast
1:45 AM 64.0 °F 63.0 °F 96% 30.06 in 1.8 mi SE 5.8 mph - N/A   Overcast
1:53 AM 64.0 °F 63.0 °F 96% 30.05 in 1.8 mi ESE 5.8 mph - N/A   Overcast
2:00 AM 64.0 °F 63.0 °F 96% 30.06 in 2.0 mi SE 4.6 mph - N/A   Overcast
2:18 AM 64.0 °F 63.0 °F 96% 30.05 in 3.0 mi SE 4.6 mph - N/A   Overcast
2:53 AM 64.0 °F 63.0 °F 96% 30.04 in 3.0 mi ESE 4.6 mph - N/A   Overcast
3:14 AM 64.0 °F 63.0 °F 96% 30.04 in 2.5 mi SE 6.9 mph - N/A   Overcast
3:53 AM 64.9 °F 63.0 °F 93% 30.04 in 2.0 mi SE 4.6 mph - N/A   Overcast
4:06 AM 64.9 °F 64.0 °F 97% 30.04 in 4.0 mi SE 5.8 mph - N/A   Overcast
4:53 AM 64.9 °F 64.0 °F 97% 30.03 in 2.5 mi SSE 4.6 mph - N/A   Overcast
5:04 AM 64.9 °F 64.0 °F 97% 30.04 in 1.5 mi SSE 5.8 mph - N/A   Overcast
5:20 AM 64.9 °F 64.0 °F 97% 30.04 in 1.5 mi Variable 4.6 mph - N/A   Overcast
5:38 AM 64.9 °F 64.0 °F 97% 30.05 in 2.0 mi South 6.9 mph - N/A   Overcast
5:47 AM 64.4 °F 64.4 °F 100% 30.05 in 1.5 mi SSE 5.8 mph - N/A   Overcast
5:53 AM 64.9 °F 64.0 °F 97% 30.04 in 1.5 mi SSE 5.8 mph - N/A   Overcast
6:05 AM 64.9 °F 64.0 °F 97% 30.05 in 1.8 mi SSE 6.9 mph - N/A   Overcast
6:12 AM 64.9 °F 64.0 °F 97% 30.05 in 2.5 mi SE 6.9 mph - N/A   Overcast
6:20 AM 64.9 °F 64.0 °F 97% 30.05 in 4.0 mi SSE 6.9 mph - N/A   Overcast
6:53 AM 64.9 °F 64.0 °F 97% 30.05 in 4.0 mi SSE 5.8 mph - N/A   Overcast
7:53 AM 66.0 °F 64.0 °F 93% 30.06 in 10.0 mi SSE 6.9 mph - N/A   Overcast
8:50 AM 71.6 °F 64.4 °F 78% 30.08 in 10.0 mi SE 10.4 mph 17.3 mph N/A   Mostly Cloudy
8:53 AM 71.1 °F 64.0 °F 78% 30.08 in 10.0 mi SSE 12.7 mph 23.0 mph N/A   Mostly Cloudy
9:11 AM 71.1 °F 63.0 °F 75% 30.08 in 10.0 mi SE 10.4 mph 18.4 mph N/A   Scattered Clouds
9:35 AM 71.1 °F 63.0 °F 75% 30.09 in 10.0 mi SSE 10.4 mph 19.6 mph N/A   Mostly Cloudy
9:49 AM 71.6 °F 62.6 °F 73% 30.08 in 10.0 mi South 11.5 mph 23.0 mph N/A   Mostly Cloudy
9:53 AM 72.0 °F 63.0 °F 73% 30.08 in 10.0 mi SSE 11.5 mph 21.9 mph N/A   Mostly Cloudy
10:28 AM 71.1 °F 63.0 °F 75% 30.09 in 10.0 mi South 18.4 mph 26.5 mph N/A   Overcast
10:53 AM 71.1 °F 63.0 °F 75% 30.07 in 10.0 mi South 11.5 mph 25.3 mph N/A   Overcast
11:53 AM 73.9 °F 63.0 °F 68% 30.06 in 10.0 mi South 19.6 mph 28.8 mph N/A   Overcast
12:53 PM 75.9 °F 63.0 °F 64% 30.03 in 10.0 mi South 13.8 mph 28.8 mph N/A   Mostly Cloudy
1:53 PM 73.0 °F 64.0 °F 73% 30.02 in 10.0 mi SSE 11.5 mph 23.0 mph N/A   Overcast
2:39 PM 72.0 °F 64.9 °F 78% 30.03 in 10.0 mi South 10.4 mph 19.6 mph N/A   Overcast
2:53 PM 72.0 °F 64.9 °F 78% 30.02 in 10.0 mi South 16.1 mph 20.7 mph N/A   Overcast
3:53 PM 71.1 °F 64.9 °F 81% 30.02 in 10.0 mi South 13.8 mph - N/A   Overcast
4:31 PM 70.0 °F 66.0 °F 87% 30.02 in 9.0 mi South 10.4 mph - N/A   Overcast
4:53 PM 70.0 °F 66.0 °F 87% 30.02 in 9.0 mi South 10.4 mph - N/A   Overcast
5:53 PM 69.1 °F 66.0 °F 90% 30.01 in 8.0 mi South 5.8 mph 16.1 mph N/A   Overcast
6:53 PM 68.0 °F 66.0 °F 93% 30.00 in 4.0 mi SSE 9.2 mph - N/A   Overcast
7:03 PM 68.0 °F 66.0 °F 93% 30.00 in 4.0 mi SSE 9.2 mph - N/A   Overcast
7:53 PM 68.0 °F 66.9 °F 96% 30.00 in 2.5 mi Variable 6.9 mph - 0.00 in Rain Light Rain
8:43 PM 68.0 °F 66.9 °F 96% 30.00 in 3.0 mi South 9.2 mph - 0.00 in Rain Light Rain
8:53 PM 68.0 °F 66.9 °F 96% 29.98 in 2.5 mi Variable 6.9 mph - 0.00 in   Overcast
9:21 PM 68.0 °F 66.9 °F 96% 29.99 in 4.0 mi South 8.1 mph - 0.00 in Rain Light Rain
9:53 PM 68.0 °F 66.0 °F 93% 29.97 in 6.0 mi South 10.4 mph 17.3 mph 0.00 in   Overcast
10:24 PM 69.1 °F 66.0 °F 90% 29.97 in 7.0 mi SSE 9.2 mph 16.1 mph N/A   Overcast
10:53 PM 69.1 °F 66.0 °F 90% 29.97 in 7.0 mi South 9.2 mph - N/A   Overcast
11:53 PM 68.0 °F 66.0 °F 93% 29.95 in 7.0 mi South 10.4 mph 20.7 mph N/A   Overcast